Regional Weather Roundup
Issued by NWS Charleston, SC

Home | Current Version | Previous Version | Text Only | Print | Product List | Glossary On
Versions: 1 2 3 4 5 6 7 8 9 10 11 12 13 14 15 16 17 18 19 20 21 22 23 24 25 26 27 28 29 30 31 32 33 34 35 36 37 38 39 40 41 42 43 44 45 46 47 48 49 50
000
ASUS42 KCHS 261725
RWRCHS

REGIONAL WEATHER ROUNDUP
NATIONAL WEATHER SERVICE CHARLESTON SC
100 PM EDT SAT JUL 26 2014

NOTE: "FAIR" INDICATES FEW OR NO CLOUDS BELOW 12,000 FEET WITH NO
SIGNIFICANT WEATHER AND/OR OBSTRUCTIONS TO VISIBILITY.

NOT ALL STATIONS ARE QUALITY CONTROLLED BY THE NATIONAL
WEATHER SERVICE. USE DATA WITH CAUTION...ESPECIALLY
DEWPOINT OBSERVATIONS.

SCZ027-030-031-034>040-042>050-261800-
...SOUTH CAROLINA...

CITY           SKY/WX    TMP DP  RH WIND       PRES   REMARKS
N CHARLESTON   MOSUNNY   88  74  63 W6        30.03S HX  96
WATERFRONT PRK   N/A     86 N/A N/A W5          N/A
FORT JOHNSON   NOT AVBL
MOUNT PLEASANT FAIR      88  77  70 CALM      30.02F HX 100
JOHNS ISLAND   MOSUNNY   90  66  45 CALM      30.02F HX  92
PINOPOLIS        N/A     88  75  66 CALM      29.96S HX  97
MONCKS CORNER    N/A     86  77  74 CALM      30.03F HX  97
SUMMERVILLE    PTSUNNY   86  77  74 CALM      30.04F HX  97
BEAUFORT MCAS  MOSUNNY   89  75  63 W8        30.03F HX  99
BEAUFORT ARPT  FAIR      88  77  70 W5        30.01F HX 100
HILTON HEAD IS NOT AVBL
GEORGETOWN     NOT AVBL
WALTERBORO       N/A     88  72  58 CALM      30.03F HX  94
ORANGEBURG     MOSUNNY   86  73  65 CALM      30.03F HX  93
BARNWELL       PTSUNNY   88  73  62 SW6       30.03F HX  96
AIKEN          FAIR      90  73  58 CALM      30.06F HX  98
MANNING        FAIR      88  73  62 SW3       30.02F HX  96
KINGSTREE      NOT AVBL
COLUMBIA       MOSUNNY   90  65  43 VRB3      30.01F HX  92
SUMTER         MOSUNNY   86  73  63 E3        30.01F HX  93
FLORENCE       PTSUNNY   87  72  60 CALM      30.02F HX  93
MYRTLE BEACH   PTSUNNY   88  73  62 SW6       30.03S HX  96
N MYRTLE BEACH MOSUNNY   84  73  69 S8        30.02F HX  90

$$

GAZ063-065-086>088-099>101-113>116-118-119-134-136>141-150-261800-
...GEORGIA...

CITY           SKY/WX    TMP DP  RH WIND       PRES   REMARKS
SAVANNAH ARPT  MOSUNNY   90  73  57 SW6       30.03F HX  98
HUNTER AAF     MOSUNNY   88  75  65 W2        30.01F HX  97
FORT STEWART   MOSUNNY   89  74  59 VRB5      30.02F HX  98
STATESBORO     NOT AVBL
SYLVANIA       MOSUNNY   88  78  71 SW3       30.04S HX 101
CLAXTON        PTSUNNY   90  77  66 CALM      30.03F HX 102
THOMSON        SUNNY     91  70  49 W6        30.08S HX  97
AUGUSTA-BUSH   PTSUNNY   89  71  55 VRB3      30.02F HX  95
AUGUSTA-DANIEL PTSUNNY   91  67  44 VRB6      30.04F HX  94
SWAINSBORO     FAIR      91  75  59 W7        30.04F HX 102
VIDALIA          N/A     88  75  66 W3        30.04F HX  97
ALMA           MOSUNNY   90  72  55 VRB3      30.05F HX  97
WAYCROSS       PTSUNNY   94  78  60 W7        30.05S HX 109
JESUP          NOT AVBL
BRUNSWICK      MOSUNNY   90  73  58 SW8       30.05F HX  98
SAINT SIMONS   MOSUNNY   82  76  81 SW10      30.05F

$$

SCZ027-028-034-036>038-045-046-048>050-GAZ119-141-261800-
...LAKE AND SUPPLEMENTAL COASTAL OBSERVATIONS...

STATION/POSITION TIME  TEMP    WIND        PRES    WAVE   SWELL
                       AIR SEA DIR/SP/G            HT/PER HT/PER/DIR
                 (UTC) (F)     (DEG/KT/KT) (MB)    (FT/S) (FT/S/D)
UPR LAKE MARION  NOT AVBL
WINYAH BAY       1700   85     310/  3     1016.0S
LAKE MURRAY      1600   84     150/  3/  4 1016.3F
ACE BASIN NERRS  1700   88     250/  1     1017.0S
FORT PULASKI     1700   87     280/  7/  9 1017.1F
SAPELO ISLAND    1700   88     240/ 10     1018.0S

$$

ANZ835-935-AMZ111-154-330-350-352-354-374-450-454-472-261800-
...C-MAN AND BUOY OBSERVATIONS...

STATION/POSITION TIME  TEMP    WIND        PRES    WAVE   SWELL
                       AIR SEA DIR/SP/G            HT/PER HT/PER/DIR
                 (UTC) (F)     (DEG/KT/KT) (MB)    (FT/S) (FT/S/D)
FOLLY BEACH CMAN 1700   84     200/ 10/ 11 1017.3F
BUOY 41004       1700   82 83  270/  8/  8 1016.7F   3/ 5   3/ 5
BUOY 41008       1700   83 85  220/ 10/ 12 1017.6F   2/ 8   2/120/ 8
5E ST. MARYS GA  1700      85                N/A     2/ 4
FRYING PAN BUOY  NOT AVBL
BUOY 41025       1600          VRB  6/  8  1016.4F   2/ 6   2/130/ 6
CAPE LOOKOUT NC  1700   81      70/  7/  8 1016.3S
BUOY 41002       1605   77 82  290/ 14/ 16 1019.7S   4/ 7   2/240/ 7
BUOY 41010       1700   84 84  210/  8/ 10 1019.8F   2/ 8   2/140/ 8
BUOY 41012       NOT AVBL
ST AUGUSTINE FL  1700   87     260/  5/  8 1019.2S
CAPERS NEARSHORE 1600   85     320/  4/  6   N/A
FRIPP NEARSHORE  NOT AVBL


$$


USA.gov is the U.S. government's official web portal to all federal, state and local government web resources and services.